KB1JDX Weather Reports


time (UTC)temp
C
wind
direction
speed
KPH
gust
KPH
rain 1hr
cm
rain 24hr
cm
rain mn
cm
humidity
%
barometer
mb
20260901025220 19 217 0.0 0.0 0.00 0.00 0.00 100 1018.2
20260901023219 19 217 0.0 0.0 0.00 0.00 0.00 100 1018.2
20260901023114 19 217 0.0 0.0 0.00 0.00 0.00 100 1018.2
20260901021220 19 217 0.0 0.0 0.00 0.00 0.00 100 1018.2
20260901015219 19 217 0.0 0.0 0.00 0.00 0.00 100 1018.4
20260901013114 19 217 0.0 0.0 0.00 0.00 0.00 100 1018.6
20260901011219 20 217 0.0 0.0 0.00 0.00 0.00 10 1018.5
20260901005219 20 217 0.0 1.6 0.00 0.00 0.00 22 1018.6
20260901003221 20 217 0.0 1.6 0.00 0.00 0.00 28 1018.5
20260901003114 20 217 0.0 1.6 0.00 0.00 0.00 28 1018.5
20260901001219 20 217 0.0 1.6 0.00 0.00 0.00 31 1018.3
20260831235219 20 217 0.0 3.2 0.00 0.00 0.00 28 1018.3
20260831233219 21 221 0.0 3.2 0.00 0.00 0.00 12 1018.6
20260831233114 21 221 0.0 3.2 0.00 0.00 0.00 12 1018.5
20260831231218 21 182 0.0 3.2 0.00 0.00 0.00 11 1018.5
20260831225219 22 178 0.0 16.1 0.00 0.00 0.00 12 1018.5
20260831223114 22 215 1.6 16.1 0.00 0.00 0.00 14 1018.4
20260831215219 23 221 0.0 0.0 0.00 0.00 0.00 21 1018.4
20260831213219 24 211 0.0 0.0 0.00 0.00 0.00 45 1018.4
20260831213114 24 211 0.0 0.0 0.00 0.00 0.00 45 1018.4
20260831211219 24 198 0.0 0.0 0.00 0.00 0.00 45 1018.1
20260831203219 25 198 0.0 0.0 0.00 0.00 0.00 47 1018.2
20260831203114 25 198 0.0 0.0 0.00 0.00 0.00 47 1018.2
20260831195219 26 198 0.0 0.0 0.00 0.00 0.00 48 1018.3
20260831193221 24 198 0.0 0.0 0.00 0.00 0.00 45 1018.7
20260831193114 24 198 0.0 0.0 0.00 0.00 0.00 45 1018.7
20260831191219 24 198 0.0 0.0 0.00 0.00 0.00 48 1018.9
20260831183219 25 198 0.0 6.4 0.00 0.00 0.00 49 1018.9
20260831183114 25 198 0.0 6.4 0.00 0.00 0.00 48 1018.9
20260831181219 26 198 0.0 6.4 0.00 0.00 0.00 46 1019.2
20260831175219 25 197 0.0 0.0 0.00 0.00 0.00 46 1019.2
20260831173219 25 261 0.0 0.0 0.00 0.00 0.00 44 1019.5
20260831173114 25 261 0.0 0.0 0.00 0.00 0.00 44 1019.5
20260831163219 25 261 0.0 0.0 0.00 0.00 0.00 41 1019.9
20260831163114 25 261 0.0 0.0 0.00 0.00 0.00 41 1020.0
20260831161219 24 355 0.0 0.0 0.00 0.00 0.00 39 1020.1
20260831155220 25 355 0.0 0.0 0.00 0.00 0.00 38 1020.1
20260831153219 24 355 0.0 0.0 0.00 0.00 0.00 33 1020.2
20260831153114 24 355 0.0 0.0 0.00 0.00 0.00 34 1020.2
20260831145219 20 355 0.0 0.0 0.00 0.00 0.00 100 1020.1
20260831143219 20 355 0.0 0.0 0.00 0.00 0.00 100 1020.1
20260831143114 20 355 0.0 0.0 0.00 0.00 0.00 100 1020.1
20260831141219 20 355 0.0 0.0 0.00 0.00 0.00 100 1020.1
20260831135219 20 351 0.0 0.0 0.00 0.00 0.00 100 1020.0
20260831133219 19 203 0.0 0.0 0.00 0.00 0.00 100 1020.0
20260831133114 19 205 0.0 0.0 0.00 0.00 0.00 100 1020.0
20260831131218 18 198 0.0 0.0 0.00 0.00 0.00 100 1019.9
20260831125218 18 193 0.0 0.0 0.00 0.00 0.00 100 1020.0
20260831123220 17 193 0.0 0.0 0.00 0.00 0.00 100 1020.0
20260831123114 17 193 0.0 0.0 0.00 0.00 0.00 100 1020.0
20260831121218 17 193 0.0 0.0 0.00 0.00 0.00 100 1020.0
20260831115220 16 192 0.0 0.0 0.00 0.00 0.00 100 1019.6
20260831113218 16 192 0.0 0.0 0.00 0.00 0.00 100 1019.7
20260831113114 16 192 0.0 0.0 0.00 0.00 0.00 100 1019.6
20260831111218 16 192 0.0 0.0 0.00 0.00 0.00 100 1019.4
20260831105218 16 193 0.0 0.0 0.00 0.00 0.00 100 1019.0
20260831103114 16 192 0.0 0.0 0.00 0.00 0.00 100 1019.0
20260831101219 16 192 0.0 0.0 0.00 0.00 0.00 100 1018.7
20260831095218 16 192 0.0 0.0 0.00 0.00 0.00 100 1018.7
20260831093218 16 192 0.0 0.0 0.00 0.00 0.00 100 1018.6
20260831093113 16 192 0.0 0.0 0.00 0.00 0.00 100 1018.5
20260831091219 17 192 0.0 0.0 0.00 0.00 0.00 100 1018.5
20260831085219 17 192 0.0 0.0 0.00 0.00 0.00 100 1018.5
20260831083219 17 192 0.0 0.0 0.00 0.00 0.00 100 1018.4
20260831083113 17 192 0.0 0.0 0.00 0.00 0.00 100 1018.2
20260831081220 17 192 0.0 0.0 0.00 0.00 0.00 100 1018.3
20260831073218 17 192 0.0 0.0 0.00 0.00 0.00 100 1018.0
20260831073113 17 192 0.0 0.0 0.00 0.00 0.00 100 1017.9
20260831071218 18 192 0.0 0.0 0.00 0.00 0.00 100 1017.9
20260831065218 18 192 0.0 0.0 0.00 0.00 0.00 100 1017.9
20260831063218 18 192 0.0 0.0 0.00 0.00 0.00 100 1017.8
20260831063113 18 192 0.0 0.0 0.00 0.00 0.00 100 1017.6
20260831061218 18 192 0.0 0.0 0.00 0.00 0.00 100 1017.7
20260831055218 18 192 0.0 0.0 0.00 0.00 0.00 100 1017.6
20260831053113 19 192 0.0 0.0 0.00 0.00 0.00 100 1017.5
20260831051218 19 192 0.0 0.0 0.00 0.00 0.00 100 1017.5
20260831045218 19 192 0.0 0.0 0.00 0.00 0.00 100 1017.3
20260831043113 20 192 0.0 0.0 0.00 0.00 0.00 100 1017.3
20260831041218 20 192 0.0 0.0 0.00 0.00 0.00 100 1017.3
20260831035218 20 192 0.0 0.0 0.00 0.00 0.00 100 1017.2
20260831033220 20 192 0.0 0.0 0.00 0.00 0.00 100 1017.1
20260831033113 20 192 0.0 0.0 0.00 0.00 0.00 100 1017.1
20260831031218 20 192 0.0 0.0 0.00 0.00 0.00 100 1017.2